SITRO-AIS 28

Last updated on Sat Aug 15 2026 00:03:45 GMT+0000 (Coordinated Universal Time)

1 59071U 24039U 26226.59991922 .00002229 00000+0 17178-3 0 9995 2 59071 95.3864 275.4611 0145113 122.2847 239.2533 14.94081031133461
UTC large
Height (km)
Speed (km/s)
/
Latitude / Longitude
Inclination (degrees)
Orbital Period (minutes)
Azimuth
Elevation
Range (km)
Doppler Factor

Next 0 passes for location: London (51.5072 / 0.1276)

No passes found over London.
SITRO-AIS 28